Regional Weather Roundup
Issued by NWS

Home | Current Version | Previous Version | Graphics & Text | Print | Product List | Glossary On
Versions: 1 2 3 4 5 6 7 8 9 10 11 12 13 14 15 16 17 18 19 20 21 22 23 24 25 26 27 28 29 30 31 32 33 34 35 36 37 38 39 40 41 42 43 44 45 46 47 48 49 50
000
ASUS43 KMKX 261700
RWRWI

WISCONSIN REGIONAL WEATHER ROUNDUP
NATIONAL WEATHER SERVICE MILWAUKEE/SULLIVAN WI
1200 PM CDT FRI AUG 26 2016

NOTE: "FAIR" INDICATES FEW OR NO CLOUDS BELOW 12,000 FEET WITH NO
SIGNIFICANT WEATHER AND/OR OBSTRUCTIONS TO VISIBILITY.

WIZ001-002-006>008-014>016-023>028-261800-
NORTHWEST WISCONSIN

CITY           SKY/WX    TMP DP  RH WIND       PRES   REMARKS
SUPERIOR ARPT  SUNNY     69  53  54 CALM      30.15F
ASHLAND        MOSUNNY   69  51  52 N8        30.16F
HAYWARD        MOSUNNY   68  50  52 VRB3      30.18S
SIREN          MOSUNNY   68  50  52 SW5       30.18S
CUMBERLAND     SUNNY     66  46  48 N5        30.20S
RICE LAKE      PTSUNNY   67  51  56 CALM      30.21S
CHETEK         NOT AVBL
LADYSMITH      PTSUNNY   67  52  58 W5        30.20S
EAU CLAIRE     NOT AVBL
MENOMONIE      SUNNY     69  50  49 CALM      30.19F
NEW RICHMOND   SUNNY     67  52  58 CALM      30.20S
OSCEOLA        SUNNY     69  55  59 CALM      30.21S
$$

WIZ003>005-009-010-017-018-261800-
NORTH CENTRAL WISCONSIN

CITY           SKY/WX    TMP DP  RH WIND       PRES   REMARKS
MANITOWISH WTR NOT AVBL
ARBOR VITAE    MOSUNNY   66  52  61 N8        30.17S
WOODRUFF       MOSUNNY   66  52  61 N8        30.17S
RHINELANDER    MOSUNNY   67  54  63 MISG      30.18S
EAGLE RIVER    MOSUNNY   65  50  57 W5        30.16S
LAND O LAKES   PTSUNNY   67  50  54 W7        30.16F
PHILLIPS       PTSUNNY   66  52  62 W5        30.18S
TOMAHAWK       MOSUNNY   66  51  58 NW7       30.19R
MEDFORD        MOSUNNY   64  53  67 W6        30.20S
MERRILL        PTSUNNY   67  52  58 NW5       30.19S
$$

WIZ029-030-035-036-043>047-261800-
CENTRAL WISCONSIN

CITY           SKY/WX    TMP DP  RH WIND       PRES   REMARKS
WAUSAU         MOSUNNY   68  53  58 VRB7      30.16F
MOSINEE        MOSUNNY   66  52  59 NW8       30.19F
MARSHFIELD     SUNNY     68  52  56 NW8       30.18F
STEVENS POINT  MOSUNNY   67  52  59 NW7       30.18F
WAUPACA        SUNNY     72  54  54 W5        30.18S
WAUTOMA        SUNNY     69  56  62 NW6       30.19S
WISC RAPIDS    SUNNY     71  55  56 VRB6      30.19F
CAMP DOUGLAS   NOT AVBL
$$

WIZ011>013-019>022-031-037>040-048>050-261800-
NORTHEAST WISCONSIN

CITY           SKY/WX    TMP DP  RH WIND       PRES   REMARKS
ANTIGO         MOSUNNY   66  53  62 W10       30.18S
SHAWANO        SUNNY     71  55  56 NW7       30.16S
OCONTO         NOT AVBL
STURGEON BAY   SUNNY     69  57  65 SW8       30.15F
GREEN BAY      SUNNY     70  58  65 W9        30.15F
MANITOWOC      NOT AVBL
APPLETON       PTSUNNY   68  54  60 W7        30.16F
CLINTONVILLE   MOSUNNY   70  52  52 NW8       30.16S
OSHKOSH        SUNNY     70  58  65 NW7       30.16F
$$

WIZ032>034-041-042-053>061-261800-
SOUTHWEST WISCONSIN

CITY           SKY/WX    TMP DP  RH WIND       PRES   REMARKS
LA CROSSE      SUNNY     70  58  65 NW3       30.18F
SPARTA         CLOUDY    66  56  70 CALM      30.20S
VIROQUA        SUNNY     67  55  67 NW3       30.20F
BOSCOBEL       MOSUNNY   71  60  68 VRB3      30.18F
PRAIRIE DU CHI MOSUNNY   68  56  66 CALM      30.18S
PLATTEVILLE    CLOUDY    69  60  72 NE3       30.19F
$$

WIZ056-057-062-063-064-067-068-261800-
SOUTH CENTRAL WISCONSIN

CITY           SKY/WX    TMP DP  RH WIND       PRES   REMARKS
REEDSBURG      NOT AVBL
BARABOO/DELLS  SUNNY     69  55  61 CALM      30.19F
LONE ROCK      NOT AVBL
MINERAL POINT  CLOUDY    72  55  56 CALM      30.20S
MADISON        CLOUDY    71  56  58 CALM      30.17F
MIDDLETON      CLOUDY    72  58  62 CALM      30.19F
WATERTOWN      SUNNY     70  59  67 NW5       30.18F
MONROE         CLOUDY    70  55  60 N3        30.19S
JANESVILLE     PTSUNNY   73  55  53 CALM      30.17F
$$

WIZ051-052-058>065-066-070>072-261800-
SOUTHEAST WISCONSIN

CITY           SKY/WX    TMP DP  RH WIND       PRES   REMARKS
MILWAUKEE      PTSUNNY   72  56  57 E7        30.17F
WAUKESHA       SUNNY     70  55  60 W6        30.19F
MILWAUKEE/TIMM SUNNY     72  54  53 CALM      30.18F
RACINE         PTSUNNY   73  56  54 E7        30.19F
BURLINGTON     PTSUNNY   73  54  52 CALM      30.18F
KENOSHA        MOSUNNY   74  58  57 N3        30.17F
FOND DU LAC    MOSUNNY   71  56  58 W8        30.18S
SHEBOYGAN      SUNNY     72  55  55 NW8       30.17S
WEST BEND      MOSUNNY   70  54  56 NW6       30.18S
JUNEAU         SUNNY     68  56  64 W3        30.20F
$$

LSZ147-162-261800-
LAKE SUPERIOR

STATION/POSITION TIME  TEMP    WIND        PRES    WAVE
                       AIR SEA DIR/SP/G            HT/PER
                 (UTC) (F)     (DEG/KT/KT) (MB)    (FT/S)
W MID LAKE BUOY  1550   60 67  330/  8/ 10 1020.8R   2/ 3
DEVILS ISLAND    1600   62     240/  3/  5 1021.7R
PORT WING        1640   65     340/  3/  5 1021.3F
SAXON HARBOR     1640   66     340/  4/  7 1021.3F
$$

LMZ867-665-643>646-261800-
LAKE MICHIGAN

STATION/POSITION TIME  TEMP    WIND        PRES    WAVE
                       AIR SEA DIR/SP/G            HT/PER
                 (UTC) (F)     (DEG/KT/KT) (MB)    (FT/S)
CHAMBERS ISLAND  1600   68     180/  3/  7 1020.3F
S GREEN BAY BUOY 1600   67 72  260/  4/  6 1020.5F
N MID LAKE BUOY  1550   65 71  260/ 10/ 12 1019.8R   1/ 3
NORTHPORT PIER   1600   68     310/  5/  8 1020.3S
SISTER BAY       1507   69     330/  8/  9   N/A
KEWAUNEE LAKESHO 1600   69     280/  5/  9 1020.5F
SHEBOYGAN LAKESH 1600   68     310/  6/  8 1021.1F
PORT WASHINGTON  1600   74     280/  6/ 10 1022.4F
ATWATER BUOY     1600   64 53   60/  6/  6   N/A
MILWAUKEE LAKESH 1610   62      50/  6/  6   N/A
S MID LAKE BUOY  1550   70 75  350/  6/  8 1021.7R   1/ 4
KENOSHA   LAKESH 1600   69      90/  5/  6 1021.7F
$$

TC  - TEMPERATURE IN CELSIUS
VSB - VISIBILITY IN STATUTE MILES
WCI - WIND CHILL INDEX
HX  - HEAT INDEX





USA.gov is the U.S. government's official web portal to all federal, state and local government web resources and services.